DW4465 Weather Reports


time (UTC)temp
F
wind
direction
speed
knots
gust
knots
rain 1hr
in
rain 24hr
in
rain mn
in
humidity
%
barometer
mb
20260906094546 71 0 0.0 0.0 0.00 0.00 0.00 77 1012.1
20260906093115 71 0 0.0 0.0 0.00 0.00 0.00 77 1012.3
20260906091557 71 0 0.0 0.0 0.00 0.00 0.00 77 1012.1
20260906090057 70 0 0.0 0.0 0.00 0.00 0.00 76 1012.2
20260906084548 70 0 0.0 0.0 0.00 0.00 0.00 75 1012.4
20260906083056 70 0 0.0 0.0 0.00 0.00 0.00 75 1012.4
20260906081557 71 0 0.0 0.0 0.00 0.00 0.00 75 1012.6
20260906080054 71 0 0.0 0.0 0.00 0.00 0.00 74 1012.5
20260906074549 71 0 0.0 0.0 0.00 0.00 0.00 73 1012.5
20260906073046 71 0 0.0 0.0 0.00 0.00 0.00 72 1012.5
20260906071556 72 0 0.0 0.0 0.00 0.00 0.00 71 1012.7
20260906070044 72 0 0.0 0.0 0.00 0.00 0.00 71 1012.5
20260906064548 73 0 0.0 0.9 0.00 0.00 0.00 70 1012.2
20260906063047 73 0 0.0 0.9 0.00 0.00 0.00 69 1012.3
20260906061546 73 0 0.0 0.0 0.00 0.00 0.00 68 1012.5
20260906060055 73 0 0.0 0.9 0.00 0.00 0.00 67 1012.5
20260906054554 73 0 0.0 1.7 0.00 0.00 0.00 67 1012.5
20260906053047 74 0 0.0 1.7 0.00 0.00 0.00 67 1012.6
20260906051552 74 0 0.0 1.7 0.00 0.00 0.00 67 1012.8
20260906050110 74 0 0.0 1.7 0.00 0.00 0.00 66 1012.8
20260906044553 75 288 0.0 1.7 0.00 0.00 0.00 65 1012.7
20260906043050 75 288 0.0 2.6 0.00 0.00 0.00 64 1012.7
20260906041555 74 0 0.0 0.9 0.00 0.00 0.00 63 1012.6
20260906040053 75 0 0.0 0.9 0.00 0.00 0.00 64 1012.6
20260906034548 75 0 0.0 1.7 0.00 0.00 0.00 65 1012.5
20260906033046 75 0 0.0 3.5 0.00 0.00 0.00 66 1012.3
20260906031555 76 0 0.0 1.7 0.00 0.00 0.00 67 1012.2
20260906030056 76 309 0.0 2.6 0.00 0.00 0.00 67 1012.0
20260906024546 77 306 0.0 3.5 0.00 0.00 0.00 66 1011.9
20260906023044 77 0 0.0 3.5 0.00 0.00 0.00 65 1012.0
20260906021605 78 0 1.7 7.8 0.00 0.00 0.00 63 1012.0
20260906020047 79 291 0.9 7.0 0.00 0.00 0.00 61 1012.0
20260906014552 80 325 1.7 6.1 0.00 0.00 0.00 58 1011.9
20260906013049 81 0 0.0 2.6 0.00 0.00 0.00 56 1011.9
20260906011547 82 0 0.9 5.2 0.00 0.00 0.00 54 1011.7
20260906010047 84 312 0.9 4.3 0.00 0.00 0.00 51 1011.6
20260906004556 85 323 1.7 3.5 0.00 0.00 0.00 48 1011.6
20260906003102 86 0 0.9 6.1 0.00 0.00 0.00 31 1011.6
20260906001547 86 223 3.5 7.8 0.00 0.00 0.00 31 1011.5
20260906000046 87 206 2.6 7.0 0.00 0.00 0.00 33 1011.5
20260905234603 88 186 2.6 7.8 0.00 0.00 0.00 32 1011.6
20260905233049 88 176 3.5 7.8 0.00 0.00 0.00 30 1011.5
20260905231557 89 194 2.6 7.8 0.00 0.00 0.00 28 1011.5
20260905230051 90 184 1.7 7.8 0.00 0.00 0.00 26 1011.5
20260905224548 89 209 3.5 8.7 0.00 0.00 0.00 24 1011.8
20260905223046 89 177 2.6 7.0 0.00 0.00 0.00 25 1012.0
20260905221554 89 198 0.9 7.0 0.00 0.00 0.00 26 1012.1
20260905220052 89 167 3.5 7.8 0.00 0.00 0.00 25 1012.3
20260905214557 89 157 3.5 7.8 0.00 0.00 0.00 24 1012.6
20260905213047 89 167 1.7 6.1 0.00 0.00 0.00 27 1012.7
20260905211554 89 170 2.6 7.8 0.00 0.00 0.00 27 1012.7
20260905210052 88 179 1.7 7.8 0.00 0.00 0.00 29 1012.9
20260905204545 88 156 1.7 6.1 0.00 0.00 0.00 30 1012.9
20260905203045 87 0 1.7 6.1 0.00 0.00 0.00 33 1013.0
20260905201554 87 160 1.7 7.0 0.00 0.00 0.00 33 1013.2
20260905200054 87 233 1.7 9.6 0.00 0.00 0.00 35 1013.3
20260905194546 87 170 3.5 7.8 0.00 0.00 0.00 39 1013.5
20260905193054 87 158 1.7 7.0 0.00 0.00 0.00 46 1013.4
20260905191556 87 162 0.9 5.2 0.00 0.00 0.00 42 1013.7
20260905190051 87 226 0.9 4.3 0.00 0.00 0.00 36 1013.9
20260905184603 85 0 0.0 4.3 0.00 0.00 0.00 39 1014.1
20260905183046 84 180 1.7 5.2 0.00 0.00 0.00 42 1014.2
20260905181552 83 103 0.9 3.5 0.00 0.00 0.00 47 1014.1
20260905180051 81 211 0.0 3.5 0.00 0.00 0.00 54 1014.2
20260905174550 80 0 0.0 5.2 0.00 0.00 0.00 59 1014.2
20260905173045 79 193 0.9 2.6 0.00 0.00 0.00 62 1014.2
20260905171553 78 0 0.9 3.5 0.00 0.00 0.00 67 1014.1
20260905170050 76 201 0.0 3.5 0.00 0.00 0.00 71 1014.4
20260905164548 74 135 0.9 2.6 0.00 0.00 0.00 78 1014.4
20260905163051 72 329 0.0 2.6 0.00 0.00 0.00 83 1014.3
20260905161554 71 59 0.9 2.6 0.00 0.00 0.00 86 1014.2
20260905160055 69 0 0.0 2.6 0.00 0.00 0.00 87 1014.3
20260905154550 68 0 0.0 1.7 0.00 0.00 0.00 88 1014.1
20260905153045 67 0 0.0 2.6 0.00 0.00 0.00 89 1014.1
20260905151552 66 0 0.0 0.9 0.00 0.00 0.00 89 1014.1
20260905150048 64 0 0.0 1.7 0.00 0.00 0.00 89 1013.9
20260905144551 63 0 0.0 1.7 0.00 0.00 0.00 88 1013.9
20260905143047 62 0 0.0 1.7 0.00 0.00 0.00 89 1013.8
20260905141609 60 0 0.0 0.0 0.00 0.00 0.00 88 1013.6
20260905140058 60 0 0.0 0.0 0.00 0.00 0.00 88 1013.4
20260905134602 60 0 0.0 0.0 0.00 0.00 0.00 87 1013.2
20260905133054 60 0 0.0 0.0 0.00 0.00 0.00 88 1013.1
20260905131558 60 0 0.0 0.0 0.00 0.00 0.00 87 1013.0
20260905130052 61 0 0.0 0.0 0.00 0.00 0.00 87 1012.8
20260905124558 61 0 0.0 0.0 0.00 0.00 0.00 87 1012.7
20260905123058 61 0 0.0 0.0 0.00 0.00 0.00 87 1012.8
20260905121549 62 0 0.0 0.0 0.00 0.00 0.00 87 1012.9
20260905120059 62 0 0.0 0.0 0.00 0.00 0.00 87 1012.8
20260905114626 62 0 0.0 0.0 0.00 0.00 0.00 87 1012.8
20260905113050 62 0 0.0 0.0 0.00 0.00 0.00 86 1012.9
20260905111553 63 0 0.0 0.0 0.00 0.00 0.00 86 1013.0
20260905110044 63 0 0.0 0.0 0.00 0.00 0.00 86 1013.1
20260905104556 63 0 0.0 0.0 0.00 0.00 0.00 86 1013.1
20260905103052 63 0 0.0 0.0 0.00 0.00 0.00 86 1013.2
20260905101547 64 0 0.0 0.0 0.00 0.00 0.00 86 1013.2
20260905100114 64 0 0.0 0.0 0.00 0.00 0.00 86 1013.3